Casa Grande, AZ

1:57 PM MST on August 20, 2019 (GMT -0700)
Casa Grande Municipal

Weather History for KCGZ - July, 2019

Change the Weather History Date:

Friday, July 19, 2019

  Actual Average Record
Temperature  
Mean Temperature 94 °F -  
Max Temperature 105 °F 101 °F 111 °F (2000)
Min Temperature 84 °F 77 °F 73 °F (2015)
Cooling Degree Days 30    
Growing Degree Days 44 (Base 50)    
Moisture  
Dew Point 48 °F    
Average Humidity 21    
Maximum Humidity 35    
Minimum Humidity 13    
Precipitation  
Precipitation 0.00 in - - ()
Sea Level Pressure  
Sea Level Pressure 29.77 in    
Wind  
Wind Speed 6 mph (West)    
Max Wind Speed 17 mph    
Max Gust Speed 23 mph    
Visibility 10 miles    
Events      
Averages and records for this station are not official NWS values.
T = Trace of Precipitation, MM = Missing Value Source: NWS Daily Summary

Daily Weather History Graph

Daily Weather History Graph

Search for Another Location

Airport or City:

Astronomy

Jul. 19, 2019 Rise Set
Actual Time 5:31 AM MST 7:34 PM MST
Civil Twilight 5:04 AM MST 8:02 PM MST
Nautical Twilight 4:30 AM MST 8:36 PM MST
Astronomical Twilight 3:53 AM MST 9:12 PM MST
Moon 9:41 PM MST (7/19) 7:57 AM MST (7/19)
Length of Visible Light 14h 58m
Length of Day
14h 02m
Waning Gibbous, 92% of the Moon is Illuminated
Jul 19
Waning Gibbous
Jul 24
Last Quarter
Jul 31
New
Aug 7
First Quarter
Aug 15
Full

Hourly Weather History & Observations

Time (MST) Temp. Heat Index Dew Point Humidity Pressure Visibility Wind Dir Wind Speed Gust Speed Precip Events Conditions
12:56 AM 91.9 °F 89.5 °F 54.0 °F 27% 29.76 in 10.0 mi WSW 4.6 mph - N/A   Clear
1:56 AM 91.0 °F 88.9 °F 55.0 °F 29% 29.76 in 10.0 mi West 4.6 mph - N/A   Clear
2:56 AM 88.0 °F 86.5 °F 55.9 °F 34% 29.78 in 10.0 mi ESE 3.5 mph - N/A   Clear
3:56 AM 86.0 °F 84.5 °F 55.0 °F 35% 29.78 in 10.0 mi Calm Calm - N/A   Clear
4:56 AM 84.9 °F - 52.0 °F 32% 29.79 in 10.0 mi West 4.6 mph - N/A   Clear
5:56 AM 84.9 °F - 51.1 °F 31% 29.79 in 10.0 mi West 5.8 mph - N/A   Clear
6:56 AM 90.0 °F - 50.0 °F 25% 29.81 in 10.0 mi SW 3.5 mph - N/A   Clear
7:56 AM 91.9 °F - 51.1 °F 25% 29.83 in 10.0 mi SSW 3.5 mph - N/A   Clear
8:56 AM 93.9 °F - 46.9 °F 20% 29.84 in 10.0 mi West 5.8 mph - N/A   Clear
9:56 AM 93.0 °F - 48.9 °F 22% 29.84 in 10.0 mi WNW 8.1 mph - N/A   Clear
10:56 AM 95.0 °F - 52.0 °F 23% 29.84 in 10.0 mi WNW 4.6 mph - N/A   Clear
11:56 AM 99.0 °F - 51.1 °F 20% 29.82 in 10.0 mi Variable 3.5 mph - N/A   Clear
12:56 PM 100.9 °F - 50.0 °F 18% 29.80 in 10.0 mi WNW 4.6 mph - N/A   Clear
1:56 PM 102.9 °F - 46.9 °F 15% 29.77 in 10.0 mi West 11.5 mph 16.1 mph N/A   Clear
2:56 PM 105.1 °F - 44.1 °F 13% 29.74 in 10.0 mi West 15.0 mph 21.9 mph N/A   Clear
3:56 PM 105.1 °F - 45.0 °F 13% 29.72 in 10.0 mi West 13.8 mph 23.0 mph N/A   Clear
4:56 PM 105.1 °F - 44.1 °F 13% 29.72 in 10.0 mi West 17.3 mph 20.7 mph N/A   Clear
5:56 PM 102.0 °F - 45.0 °F 14% 29.72 in 10.0 mi West 13.8 mph - N/A   Clear
6:56 PM 100.9 °F - 45.0 °F 15% 29.71 in 10.0 mi WNW 9.2 mph - N/A   Clear
7:56 PM 98.1 °F - 44.1 °F 16% 29.72 in 10.0 mi WNW 6.9 mph - N/A   Clear
8:56 PM 97.0 °F - 42.1 °F 15% 29.73 in 10.0 mi WNW 8.1 mph - N/A   Clear
9:56 PM 95.0 °F - 39.9 °F 15% 29.75 in 10.0 mi WNW 8.1 mph - N/A   Clear
10:56 PM 93.9 °F - 39.9 °F 15% 29.76 in 10.0 mi WNW 9.2 mph - N/A   Clear
11:56 PM 91.9 °F - 39.0 °F 16% 29.77 in 10.0 mi WNW 5.8 mph - N/A   Clear